User: anonymous   Login
Location: Ostrava
(49.8330°N, 18.2830°E)
Time: 05:04:55
(UTC+02:00)
Language:

Cosmos 1766 - Orbit

View from above orbital plane
View from above orbital plane
View from above satellite
View from above satellite

Ground track
Ground track

The orbit data is extracted from the following two-line orbital elements,

1 16881U 86055A   15240.19681810  .00002093  00000-0  13197-3 0  9992
2 16881 082.5070 307.6988 0017286 191.9454 168.1367 15.08500815582028
Epoch (UTC): 28 August 2015 04:43:25
Eccentricity: 0.0017286
inclination: 82.5070°
perigee height: 529 km
apogee height: 553 km
right ascension of ascending node: 307.6988°
argument of perigee: 191.9454°
revolutions per day: 15.08500815
mean anomaly at epoch: 168.1367°
orbit number at epoch: 58202

The dashed part of the orbit path shows where the satellite is in the earth's shadow,  

DLR